Location: Evensen
(52.5775°N, 9.5258°E)
Time: 20:09:48
(UTC+00:00)

SL-08 ROCKET BODY - Pass Details

Date: 15 May 2026
Orbit: 896 x 961 km, 82.9° (Epoch: 6 June)

Event Time Altitude Azimuth Distance (km) Brightness Sun altitude
Rises 22:01:19 0° 349° (N) 3,639 9.2 -16.5°
Reaches altitude 10° 22:03:49 10° 351° (N) 2,695 8.1 -16.6°
Maximum altitude 22:10:01 84° 79° (E) 973 4.4 -16.9°
Enters shadow 22:13:39 27° 167° (SSE) 1,768 5.2 -17.0°
